Location: St. Louis
(38.6270°N, 90.1994°W)
Time: 11:53:51
(UTC-06:00)

Tiros 1 despin weight - Pass Details

Date: 08 December 2021
Orbit: 592 x 641 km, 48.2° (Epoch: 25 January)

Event Time Altitude Azimuth Distance (km) Brightness Sun altitude
Rises 18:38:50 0° 288° (WNW) 2,823 ? -22.6°
Reaches altitude 10° 18:41:49 10° 267° (W) 1,920 ? -23.2°
Maximum altitude 18:44:34 16° 228° (SW) 1,551 ? -23.7°
Drops below altitude 10° 18:47:19 10° 189° (S) 1,923 ? -24.3°
Sets 18:50:19 0° 168° (SSE) 2,829 ? -24.8°
